This demonstration page uses our WeatherBlox Daily Observations layout. Learn more.

Left ArrowRight Arrow

41.12389, -100.76542

Hourly Observations for July 23, 2022

Temp ( °F °C ) Dew Point ( °F °C ) Humidity (%) Winds ( mph kmh ) Pressure ( in mb ) Visibility ( mi km ) Precip ( " mm )
12:53 am 00:53 Clear 79 26.1 64 17.8 60 60 SSE 6 9 29.80 1009 10 16 0.00 0.00
1:53 am 01:53 Clear 77 25 63 17.2 62 62 ESE 15 24 29.81 1010 10 16 0.00 0.00
2:53 am 02:53 Clear 73 22.8 62 16.7 69 69 ESE 9 15 29.79 1009 10 16 0.00 0.00
3:53 am 03:53 Clear 73 22.8 62 16.7 69 69 SE 8 13 29.77 1008 10 16 0.00 0.00
4:53 am 04:53 Clear 74 23.3 61 16.1 64 64 ESE 8 13 29.76 1008 10 16 0.00 0.00
5:53 am 05:53 Clear 76 24.4 59 15 56 56 SE 8 13 29.74 1007 10 16 0.00 0.00
6:53 am 06:53 Sunny 77 25 60 15.6 56 56 S 12 19 29.73 1007 10 16 0.00 0.00
7:53 am 07:53 Sunny 78 25.6 61 16.1 56 56 S 13 20 29.73 1007 10 16 0.00 0.00
8:53 am 08:53 Sunny 81 27.2 63 17.2 54 54 Calm 29.72 1007 10 16 0.00 0.00
9:53 am 09:53 Sunny 87 30.6 64 17.8 46 46 SSW 12 19 29.72 1006 10 16 0.00 0.00
10:53 am 10:53 Sunny 92 33.3 62 16.7 37 37 SW 13 20 29.72 1006 10 16 0.00 0.00
11:53 am 11:53 Sunny 96 35.6 61 16.1 31 31 SW 12 19 29.70 1006 10 16 0.00 0.00
12:53 pm 12:53 Sunny 98 36.7 60 15.6 28 28 WSW 10 17 29.70 1006 10 16 0.00 0.00
1:53 pm 13:53 Sunny 100 37.8 61 16.1 28 28 SW 7 11 29.69 1005 10 16 0.00 0.00
2:53 pm 14:53 Sunny 100 37.8 63 17.2 30 30 WSW 7 11 29.72 1006 10 16 0.00 0.00
3:21 pm 15:21 Sunny 103 39.4 57 13.9 22 22 NNW 21 33 29.55 1001 10 16 0.00 0.00
3:53 pm 15:53 Sunny 100 37.8 51 10.6 19 19 NNW 24 39 29.74 1007 10 16 0.00 0.00
4:53 pm 16:53 Sunny 97 36.1 56 13.3 25 25 N 20 31 29.74 1007 10 16 0.00 0.00
5:53 pm 17:53 Sunny 94 34.4 59 15 31 31 N 13 20 29.78 1009 10 16 0.00 0.00
6:53 pm 18:53 Sunny 90 32.2 62 16.7 39 39 NNE 12 19 29.79 1009 10 16 0.00 0.00
7:53 pm 19:53 Sunny 87 30.6 65 18.3 48 48 NE 3 6 29.81 1010 10 16 0.00 0.00
8:53 pm 20:53 Sunny 84 28.9 65 18.3 53 53 NNE 12 19 29.84 1011 10 16 0.00 0.00
9:53 pm 21:53 Clear 83 28.3 64 17.8 53 53 N 14 22 29.89 1012 10 16 0.00 0.00
10:53 pm 22:53 Clear 79 26.1 64 17.8 60 60 N 7 11 29.92 1013 10 16 0.00 0.00
11:53 pm 23:53 Clear 75 23.9 61 16.1 62 62 NE 6 9 29.93 1014 10 16 0.00 0.00

Powered by AerisWeather